Orbital Elements at Epoch 2459200.5 (2020-Dec-17.0) TDB
Reference: JPL 20 (heliocentric ecliptic J2000)
Element | Value | Uncertainty (1-sigma) | Units |
e | .1698617388747599 | 3.3515e-08 | |
a | 2.32893585969809 | 7.4965e-09 | au |
q | 1.933338764841989 | 7.5575e-08 | au |
i | 1.57451678559949 | 3.6027e-06 | deg |
node | 221.8259999052036 | 0.00012893 | deg |
peri | 263.5279231213333 | 0.00012957 | deg |
M | 223.0202035487943 | 1.5082e-05 | deg |
tp | 2459694.456533968956 (2022-Apr-24.95653397) | 5.5733e-05 | TDB |
period | 1298.179416496416 3.55 | 6.268e-06 1.716e-08 | d yr |
n | .2773114374063824 | 1.3389e-09 | deg/d |
Q | 2.724532954554191 | 8.7698e-09 | au |
|
| | Orbit Determination Parameters
Additional Information
|